• In Portugal
  • List of Countries
  • For 7 days
  • Water Temperature
  • Satellite Maps
  • Weather Map
  • Weather Widgets
  • user-avatar
    Login

    Hourly Weather Hobart

    Today, 17 August, Friday

    Time Temperature Precipitation Wind Pressure Humidity
    00:00 +4°C° 0 mm 3 mps 741 mmHg 91%
    01:00 +4°C° 0 mm 3 mps 741 mmHg 92%
    02:00 +4°C° 0 mm 3 mps 741 mmHg 91%
    03:00 +4°C° 0 mm 3 mps 741 mmHg 91%
    04:00 +3°C° 0 mm 3 mps 741 mmHg 91%
    05:00 +4°C° 0 mm 3 mps 741 mmHg 90%
    06:00 +4°C° 0 mm 3 mps 741 mmHg 88%
    07:00 +4°C° 0 mm 4 mps 741 mmHg 87%
    08:00 +6°C° 0 mm 4 mps 741 mmHg 80%
    09:00 +7°C° 0 mm 4 mps 740 mmHg 73%
    10:00 +10°C° 0 mm 4 mps 740 mmHg 64%
    11:00 +11°C° 0 mm 4 mps 740 mmHg 61%
    12:00 +12°C° 0 mm 5 mps 739 mmHg 57%
    13:00 +13°C° 0 mm 5 mps 739 mmHg 54%
    14:00 +13°C° 0 mm 5 mps 738 mmHg 56%
    15:00 +13°C° 0 mm 4 mps 738 mmHg 59%
    16:00 +12°C° 0 mm 4 mps 737 mmHg 61%
    17:00 +11°C° 0 mm 4 mps 737 mmHg 67%
    18:00 +10°C° 0 mm 4 mps 737 mmHg 73%
    19:00 +8°C° 0 mm 4 mps 736 mmHg 79%
    20:00 +8°C° 0.6 mm 4 mps 736 mmHg 82%
    21:00 +7°C° 0.6 mm 4 mps 736 mmHg 86%
    22:00 +7°C° 0.6 mm 4 mps 735 mmHg 89%
    23:00 +8°C° 0.9 mm 3 mps 735 mmHg 92%

    Tomorrow, 18 August, Saturday

    Time Temperature Precipitation Wind Pressure Humidity
    00:00 +8°C° 0.9 mm 3 mps 735 mmHg 94%
    01:00 +8°C° 0.9 mm 3 mps 735 mmHg 97%
    02:00 +7°C° 0.4 mm 3 mps 734 mmHg 97%
    03:00 +7°C° 0.4 mm 2 mps 734 mmHg 97%
    04:00 +7°C° 0.4 mm 2 mps 734 mmHg 97%
    05:00 +5°C° 0.2 mm 3 mps 734 mmHg 96%
    06:00 +5°C° 0.2 mm 3 mps 734 mmHg 95%
    07:00 +4°C° 0.2 mm 3 mps 734 mmHg 95%
    08:00 +5°C° 0 mm 3 mps 735 mmHg 89%
    09:00 +6°C° 0 mm 4 mps 735 mmHg 83%
    10:00 +7°C° 0 mm 4 mps 735 mmHg 78%
    11:00 +7°C° 0.1 mm 4 mps 735 mmHg 72%
    12:00 +8°C° 0.1 mm 4 mps 735 mmHg 67%
    13:00 +8°C° 0.1 mm 4 mps 735 mmHg 61%
    14:00 +8°C° 0.2 mm 4 mps 735 mmHg 65%
    15:00 +7°C° 0.2 mm 4 mps 735 mmHg 70%
    16:00 +7°C° 0.2 mm 4 mps 735 mmHg 74%
    17:00 +5°C° 0.1 mm 3 mps 735 mmHg 79%
    18:00 +4°C° 0.1 mm 3 mps 735 mmHg 84%
    19:00 +3°C° 0.1 mm 3 mps 736 mmHg 88%
    20:00 +2°C° 0 mm 3 mps 736 mmHg 89%
    21:00 +1°C° 0 mm 4 mps 736 mmHg 90%
    22:00 +1°C° 0 mm 4 mps 737 mmHg 90%
    23:00 +1°C° 0.1 mm 4 mps 737 mmHg 91%

    Day after tomorrow, 19 August, Sunday

    Time Temperature Precipitation Wind Pressure Humidity
    00:00 +1°C° 0.1 mm 4 mps 737 mmHg 92%
    01:00 +1°C° 0.1 mm 4 mps 737 mmHg 92%
    02:00 +1°C° 0.5 mm 5 mps 738 mmHg 93%
    03:00 +2°C° 0.5 mm 6 mps 738 mmHg 93%
    04:00 +2°C° 0.5 mm 7 mps 738 mmHg 93%
    05:00 +2°C° 1 mm 8 mps 739 mmHg 93%
    06:00 +2°C° 1 mm 9 mps 740 mmHg 93%
    07:00 +2°C° 1 mm 9 mps 741 mmHg 93%
    08:00 +3°C° 1.4 mm 9 mps 743 mmHg 92%
    09:00 +3°C° 1.4 mm 9 mps 744 mmHg 91%
    10:00 +3°C° 1.4 mm 9 mps 745 mmHg 90%
    11:00 +3°C° 0.3 mm 9 mps 746 mmHg 88%
    12:00 +2°C° 0.3 mm 8 mps 747 mmHg 86%
    13:00 +2°C° 0.3 mm 8 mps 748 mmHg 84%
    14:00 +2°C° 0.2 mm 8 mps 748 mmHg 81%
    15:00 +3°C° 0.2 mm 7 mps 749 mmHg 79%
    16:00 +3°C° 0.2 mm 7 mps 749 mmHg 76%
    17:00 +2°C° 0.1 mm 7 mps 750 mmHg 80%
    18:00 +1°C° 0.1 mm 6 mps 750 mmHg 83%
    19:00 +1°C° 0.1 mm 6 mps 751 mmHg 87%
    20:00 -1°C° 0.1 mm 6 mps 752 mmHg 89%
    21:00 0°C° 0.1 mm 5 mps 752 mmHg 90%
    22:00 -1°C° 0.1 mm 5 mps 753 mmHg 92%
    23:00 -1°C° 0 mm 5 mps 753 mmHg 93%

    20 August, Monday

    Time Temperature Precipitation Wind Pressure Humidity
    00:00 -2°C° 0 mm 4 mps 752 mmHg 94%
    01:00 -2°C° 0 mm 4 mps 752 mmHg 95%
    02:00 -2°C° 0 mm 4 mps 752 mmHg 96%
    03:00 -3°C° 0 mm 4 mps 752 mmHg 96%
    04:00 -2°C° 0 mm 3 mps 752 mmHg 96%
    05:00 -2°C° 0 mm 3 mps 752 mmHg 96%
    06:00 -2°C° 0 mm 3 mps 752 mmHg 96%
    07:00 -1°C° 0 mm 3 mps 752 mmHg 96%
    08:00 +1°C° 0 mm 3 mps 752 mmHg 87%
    09:00 +3°C° 0 mm 3 mps 751 mmHg 78%
    10:00 +5°C° 0 mm 3 mps 751 mmHg 68%
    11:00 +7°C° 0 mm 3 mps 751 mmHg 67%
    12:00 +8°C° 0 mm 3 mps 750 mmHg 65%
    13:00 +9°C° 0 mm 3 mps 749 mmHg 63%
    14:00 +9°C° 0 mm 3 mps 749 mmHg 65%
    15:00 +7°C° 0 mm 4 mps 748 mmHg 67%
    16:00 +7°C° 0 mm 4 mps 747 mmHg 69%
    17:00 +6°C° 0 mm 4 mps 747 mmHg 74%
    18:00 +5°C° 0 mm 4 mps 746 mmHg 80%
    19:00 +4°C° 0 mm 4 mps 746 mmHg 86%
    20:00 +4°C° 0 mm 4 mps 745 mmHg 86%
    21:00 +3°C° 0 mm 5 mps 745 mmHg 86%
    22:00 +5°C° 0 mm 5 mps 744 mmHg 85%
    23:00 +5°C° 0.2 mm 5 mps 743 mmHg 86%

    21 August, Tuesday

    Time Temperature Precipitation Wind Pressure Humidity
    00:00 +6°C° 0.2 mm 5 mps 743 mmHg 87%
    01:00 +6°C° 0.2 mm 5 mps 742 mmHg 88%
    02:00 +5°C° 0.2 mm 5 mps 742 mmHg 89%
    03:00 +4°C° 0.2 mm 6 mps 742 mmHg 91%
    04:00 +3°C° 0.2 mm 6 mps 742 mmHg 93%
    05:00 +4°C° 0.1 mm 6 mps 742 mmHg 93%
    06:00 +4°C° 0.1 mm 6 mps 742 mmHg 93%
    07:00 +4°C° 0.1 mm 6 mps 743 mmHg 93%
    08:00 +5°C° 0.1 mm 6 mps 743 mmHg 90%
    09:00 +5°C° 0.1 mm 6 mps 743 mmHg 86%
    10:00 +6°C° 0.1 mm 7 mps 743 mmHg 83%
    11:00 +6°C° 0.1 mm 7 mps 743 mmHg 81%
    12:00 +8°C° 0.1 mm 7 mps 743 mmHg 80%
    13:00 +8°C° 0.1 mm 7 mps 743 mmHg 79%
    14:00 +8°C° 0.1 mm 7 mps 743 mmHg 77%
    15:00 +8°C° 0.1 mm 6 mps 743 mmHg 75%
    16:00 +8°C° 0.1 mm 6 mps 743 mmHg 73%
    17:00 +7°C° 0 mm 6 mps 744 mmHg 78%
    18:00 +6°C° 0 mm 5 mps 745 mmHg 83%
    19:00 +5°C° 0 mm 4 mps 745 mmHg 87%
    20:00 +5°C° 0 mm 4 mps 745 mmHg 89%
    21:00 +5°C° 0 mm 4 mps 746 mmHg 92%
    22:00 +5°C° 0 mm 4 mps 746 mmHg 94%
    23:00 +4°C° 0 mm 4 mps 746 mmHg 95%

    22 August, Wednesday

    Time Temperature Precipitation Wind Pressure Humidity
    00:00 +4°C° 0 mm 3 mps 746 mmHg 95%
    01:00 +4°C° 0 mm 3 mps 746 mmHg 96%
    02:00 +4°C° 0 mm 3 mps 745 mmHg 96%
    03:00 +4°C° 0 mm 3 mps 745 mmHg 95%
    04:00 +4°C° 0 mm 3 mps 745 mmHg 95%
    05:00 +4°C° 0 mm 3 mps 745 mmHg 94%
    06:00 +4°C° 0 mm 3 mps 745 mmHg 93%
    07:00 +4°C° 0 mm 3 mps 745 mmHg 92%
    08:00 +5°C° 0 mm 3 mps 745 mmHg 86%
    09:00 +7°C° 0 mm 4 mps 745 mmHg 79%
    10:00 +8°C° 0 mm 4 mps 745 mmHg 72%
    11:00 +10°C° 0 mm 4 mps 745 mmHg 71%
    12:00 +10°C° 0 mm 4 mps 744 mmHg 70%
    13:00 +9°C° 0 mm 5 mps 744 mmHg 69%
    14:00 +9°C° 0 mm 5 mps 744 mmHg 69%
    15:00 +9°C° 0 mm 5 mps 744 mmHg 70%
    16:00 +10°C° 0 mm 4 mps 744 mmHg 71%
    17:00 +8°C° 0 mm 4 mps 744 mmHg 77%
    18:00 +8°C° 0 mm 3 mps 744 mmHg 83%
    19:00 +7°C° 0 mm 3 mps 745 mmHg 89%
    20:00 +7°C° 0.2 mm 2 mps 745 mmHg 90%
    21:00 +7°C° 0.2 mm 2 mps 745 mmHg 92%
    22:00 +6°C° 0.2 mm 2 mps 745 mmHg 94%
    23:00 +6°C° 0.2 mm 2 mps 745 mmHg 95%
    Show more